Home   Weather   Brantford   Past weeks

Flag for Canada Past Weather in Brantford, Ontario, Canada — Yesterday and Last 2 Weeks

Now
39 °F

Mostly cloudy.


Feels Like: 32 °F
Forecast: 29 / 39 °F
Wind: 12 mph from Northeast

Location: Hamilton Airport

Current Time: Dec 6, 2016 at 2:57:03 pm

Latest Report: Dec 6, 2016 at 2:00 pm


Visibility: 15 mi

Pressure: 29.83 "Hg

Humidity: 70%

Dew Point: 30 °F

Location of BrantfordLocation

Past Weather in Brantford — Graph

°F

Brantford Temperature Yesterday

Maximum temperature yesterday: 41 °F (at 1:00 pm)
Minimum temperature yesterday: 32 °F (at 1:00 am)
Average temperature yesterday: 36 °F

High & Low Weather Summary for the Past Weeks

 TemperatureHumidityPressure
High55 °F (Nov 29, 1:00 pm)100% (Nov 23, 9:00 pm)30.39 "Hg (Nov 23, 9:00 pm)
Low19 °F (Nov 23, 7:00 am)51% (Nov 21, 12:00 pm)29.47 "Hg (Nov 30, 9:00 pm)
Average38 °F85%30.03 "Hg
* Reported Nov 21 12:00 pm — Dec 6 12:00 pm, Brantford, Weather by CustomWeather, © 2016

Note: Actual official high and low records may vary slightly from our data, if they occured in-between our weather recording intervals... More about our weather records

Advertising

Brantford Weather History for the Previous 24 Hours

Scroll right to see more
 ConditionsComfort  
Time TempWeatherWind HumidityBarometerVisibility
12:00 pm
Tue, Dec 6
39 °FOvercast.15 mph70%29.89 "Hg15 mi
11:00 am37 °FPartly sunny.17 mph75%29.92 "Hg15 mi
10:00 am36 °FPartly sunny.13 mph81%29.98 "Hg15 mi
9:00 am32 °FOvercast.9 mph93%30.01 "Hg15 mi
8:00 am28 °FBroken clouds.8 mph100%30.03 "Hg15 mi
7:00 am28 °FPassing clouds.7 mph93%30.06 "Hg15 mi
6:00 am28 °FPassing clouds.6 mph100%30.06 "Hg15 mi
5:00 am28 °FPassing clouds.5 mph100%30.07 "Hg15 mi
4:00 am30 °FClear.3 mph93%30.08 "Hg15 mi
3:00 am30 °FClear.No wind100%30.09 "Hg15 mi
2:00 am32 °FClear.3 mph93%30.11 "Hg15 mi
1:00 am34 °FPassing clouds.6 mph87%30.11 "Hg15 mi
12:00 am36 °FOvercast.3 mph81%30.11 "Hg15 mi
11:00 pm
Mon, Dec 5
37 °FOvercast.5 mph81%30.11 "Hg15 mi
10:00 pm37 °FPassing clouds.5 mph81%30.11 "Hg15 mi
9:00 pm37 °FPassing clouds.8 mph75%30.10 "Hg15 mi
8:00 pm37 °FPassing clouds.8 mph75%30.10 "Hg15 mi
7:00 pm37 °FOvercast.8 mph75%30.09 "Hg15 mi
6:00 pm39 °FPassing clouds.8 mph70%30.08 "Hg15 mi
5:00 pm39 °FPassing clouds.9 mph70%30.06 "Hg15 mi
4:00 pm39 °FPartly sunny.13 mph70%30.03 "Hg15 mi
3:00 pm39 °FPartly sunny.17 mph70%30.01 "Hg15 mi
2:00 pm41 °FMostly cloudy.17 mph70%29.99 "Hg15 mi
Weather by CustomWeather, © 2016

See weather overviewHow to use our weather pages